Change the Weather History Date:

Tuesday, May 6, 2014

  Actual Average Record
Temperature  
Mean Temperature 69 °F -  
Max Temperature 90 °F 72 °F 97 °F (1955)
Min Temperature 48 °F 47 °F 31 °F (1991)
Cooling Degree Days 4    
Growing Degree Days 19 (Base 50)    
Moisture  
Dew Point 52 °F    
Average Humidity 52    
Maximum Humidity 84    
Minimum Humidity 21    
Precipitation  
Precipitation 0.00 in - - ()
Sea Level Pressure  
Sea Level Pressure 29.55 in    
Wind  
Wind Speed 7 mph (ESE)    
Max Wind Speed 18 mph    
Max Gust Speed 22 mph    
Visibility 10 miles    
Events      
Averages and records for this station are not official NWS values.
T = Trace of Precipitation, MM = Missing Value Source: NWS Daily Summary

Daily Weather History Graph

Daily Weather History Graph

Search for Another Location

Airport or City:

Trip Planner

Search our weather history database for the weather conditions in past years. The results will help you decide how hot, cold, wet, or windy it might be!

Date:

Astronomy

May. 06, 2014 Rise Set
Actual Time 6:24 AM CDT 8:30 PM CDT
Civil Twilight 5:54 AM CDT 9:00 PM CDT
Nautical Twilight 5:17 AM CDT 9:37 PM CDT
Astronomical Twilight 4:37 AM CDT 10:17 PM CDT
Moon 12:41 PM CDT (5/6) 1:50 AM CDT (5/6)
Length of Visible Light 15h 06m
Length of Day
14h 06m
Waxing Crescent, 46% of the Moon is Illuminated
May 6
Waxing Crescent
May 6
First Quarter
May 14
Full
May 21
Last Quarter
May 28
New

Hourly Weather History & Observations

Time (CDT) Temp. Heat Index Dew Point Humidity Pressure Visibility Wind Dir Wind Speed Gust Speed Precip Events Conditions
12:15 AM 58.6 °F - 44.6 °F 60% 29.76 in 10.0 mi East 8.1 mph - N/A   Clear
12:35 AM 59.2 °F - 44.6 °F 58% 29.74 in 10.0 mi East 8.1 mph - N/A   Clear
12:55 AM 58.6 °F - 44.8 °F 60% 29.73 in 10.0 mi East 8.1 mph - N/A   Clear
1:15 AM 57.7 °F - 45.0 °F 62% 29.73 in 10.0 mi East 6.9 mph - N/A   Clear
1:35 AM 56.7 °F - 45.0 °F 65% 29.71 in 10.0 mi East 4.6 mph - N/A   Clear
1:55 AM 55.9 °F - 45.0 °F 67% 29.71 in 10.0 mi ESE 5.8 mph - N/A   Clear
2:15 AM 55.8 °F - 45.1 °F 67% 29.70 in 10.0 mi ESE 6.9 mph - N/A   Clear
2:35 AM 55.6 °F - 45.3 °F 68% 29.68 in 10.0 mi East 5.8 mph - N/A   Clear
6:50 AM 48.2 °F - 43.7 °F 84% 29.64 in 10.0 mi ENE 4.6 mph - N/A   Clear
7:15 AM 50.2 °F - 45.0 °F 82% 29.64 in 10.0 mi East 3.5 mph - N/A   Clear
7:35 AM 52.7 °F - 45.9 °F 78% 29.63 in 10.0 mi ENE 5.8 mph - N/A   Clear
7:55 AM 54.0 °F - 45.9 °F 74% 29.63 in 10.0 mi East 6.9 mph - N/A   Clear
8:15 AM 55.4 °F - 46.8 °F 73% 29.63 in 10.0 mi East 5.8 mph - N/A   Clear
8:55 AM 59.9 °F - 49.1 °F 67% 29.62 in 10.0 mi ESE 9.2 mph - N/A   Clear
9:15 AM 61.9 °F - 50.2 °F 65% 29.62 in 10.0 mi East 6.9 mph - N/A   Clear
9:35 AM 62.8 °F - 50.7 °F 65% 29.61 in 10.0 mi East 9.2 mph - N/A   Clear
9:55 AM 65.1 °F - 52.2 °F 63% 29.60 in 10.0 mi East 5.8 mph - N/A   Clear
10:15 AM 66.9 °F - 52.7 °F 60% 29.59 in 10.0 mi East 6.9 mph - N/A   Clear
10:35 AM 69.8 °F - 54.3 °F 58% 29.59 in 10.0 mi SE 8.1 mph - N/A   Clear
10:55 AM 70.9 °F - 54.9 °F 57% 29.58 in 10.0 mi ESE 5.8 mph - N/A   Clear
11:15 AM 72.7 °F - 55.2 °F 54% 29.58 in 10.0 mi ESE 5.8 mph - N/A   Clear
11:35 AM 73.9 °F - 55.4 °F 52% 29.58 in 10.0 mi SE 8.1 mph - N/A   Clear
11:55 AM 75.0 °F - 55.8 °F 51% 29.59 in 10.0 mi SE 4.6 mph - N/A   Clear
12:15 PM 76.6 °F - 56.5 °F 50% 29.58 in 10.0 mi East 5.8 mph - N/A   Clear
12:35 PM 76.5 °F - 56.7 °F 50% 29.58 in 10.0 mi East 6.9 mph - N/A   Clear
12:55 PM 77.5 °F - 57.0 °F 49% 29.57 in 10.0 mi ESE 9.2 mph - N/A   Clear
1:15 PM 79.3 °F - 56.7 °F 46% 29.56 in 10.0 mi ESE 9.2 mph - N/A   Clear
1:35 PM 80.1 °F 80.6 °F 57.9 °F 47% 29.55 in 10.0 mi ESE 8.1 mph 17.3 mph N/A   Clear
1:55 PM 80.1 °F 80.6 °F 58.3 °F 47% 29.54 in 10.0 mi ESE 9.2 mph - N/A   Clear
2:15 PM 82.0 °F 82.1 °F 58.6 °F 45% 29.52 in 10.0 mi ESE 11.5 mph - N/A   Clear
2:35 PM 83.5 °F 82.9 °F 57.4 °F 41% 29.51 in 10.0 mi ESE 16.1 mph 21.9 mph N/A   Clear
3:15 PM 83.7 °F 83.0 °F 57.2 °F 40% 29.50 in 10.0 mi ESE 10.4 mph 21.9 mph N/A   Clear
3:35 PM 85.1 °F 84.3 °F 57.6 °F 39% 29.50 in 10.0 mi SSE 11.5 mph 17.3 mph N/A   Clear
3:55 PM 87.1 °F 85.5 °F 55.8 °F 34% 29.49 in 10.0 mi SE 16.1 mph 20.7 mph N/A   Clear
4:15 PM 88.0 °F 85.9 °F 53.6 °F 31% 29.48 in 10.0 mi SSE 15.0 mph 19.6 mph N/A   Clear
4:35 PM 87.8 °F 85.5 °F 53.1 °F 30% 29.48 in 10.0 mi SSE 15.0 mph 21.9 mph N/A   Clear
4:55 PM 88.3 °F - 52.2 °F 29% 29.47 in 10.0 mi SSE 18.4 mph - N/A   Clear
5:15 PM 89.1 °F - 49.8 °F 26% 29.47 in 10.0 mi SSE 15.0 mph 18.4 mph N/A   Clear
5:35 PM 90.5 °F - 49.1 °F 24% 29.46 in 10.0 mi SSE 12.7 mph 17.3 mph N/A   Clear
5:55 PM 90.3 °F - 48.9 °F 24% 29.45 in 10.0 mi South 11.5 mph 18.4 mph N/A   Clear
6:15 PM 90.1 °F - 45.3 °F 21% 29.45 in 10.0 mi South 11.5 mph 18.4 mph N/A   Clear
6:35 PM 89.6 °F - 46.4 °F 22% 29.45 in 10.0 mi South 11.5 mph - N/A   Clear
6:55 PM 88.9 °F - 47.1 °F 24% 29.45 in 10.0 mi South 9.2 mph - N/A   Clear
7:15 PM 86.5 °F - 48.7 °F 27% 29.45 in 10.0 mi South 5.8 mph - N/A   Clear
7:35 PM 84.4 °F - 50.2 °F 30% 29.46 in 10.0 mi South 3.5 mph - N/A   Clear
7:55 PM 79.0 °F - 53.6 °F 41% 29.46 in 10.0 mi Calm Calm - N/A   Clear
8:15 PM 75.6 °F - 53.1 °F 45% 29.46 in 10.0 mi Calm Calm - N/A   Clear
8:35 PM 73.2 °F - 52.0 °F 47% 29.45 in 10.0 mi Calm Calm - N/A   Clear
8:55 PM 73.0 °F - 50.5 °F 45% 29.45 in 10.0 mi Calm Calm - N/A   Clear
9:15 PM 72.5 °F - 51.4 °F 47% 29.46 in 10.0 mi Calm Calm - N/A   Clear
9:35 PM 69.8 °F - 53.1 °F 55% 29.47 in 10.0 mi SSE 5.8 mph - N/A   Clear
10:15 PM 68.4 °F - 57.0 °F 67% 29.47 in 10.0 mi Calm Calm - N/A   Clear
10:35 PM 66.6 °F - 57.2 °F 72% 29.47 in 10.0 mi Calm Calm - N/A   Clear
10:55 PM 65.5 °F - 56.7 °F 73% 29.47 in 10.0 mi Calm Calm - N/A   Clear
11:15 PM 64.0 °F - 56.5 °F 76% 29.47 in 10.0 mi Calm Calm - N/A   Clear
11:35 PM 63.1 °F - 54.7 °F 74% 29.47 in 10.0 mi Calm Calm - N/A   Clear
11:55 PM 61.0 °F - 54.9 °F 80% 29.46 in 10.0 mi Calm Calm - N/A   Clear